Kalamazoo, MI

12:47 AM EDT on September 23, 2017 (GMT -0400)
Kalamazoo-Battle Creek International

Weather History for KAZO - July, 2013

Change the Weather History Date:

Wednesday, July 17, 2013

  Actual Average Record
Temperature  
Mean Temperature 83 °F 73 °F  
Max Temperature 92 °F 83 °F 100 °F (2012)
Min Temperature 74 °F 62 °F 46 °F (2014)
Degree Days  
Heating Degree Days 0 0  
Month to date heating degree days 2 0  
Since 1 June heating degree days 41 48  
Since 1 July heating degree days 2 0  
Cooling Degree Days 18 8  
Month to date cooling degree days 157 133  
Year to date cooling degree days 383 319  
Since 1 June cooling degree days 303 278  
Growing Degree Days 32 (Base 50)    
Moisture  
Dew Point 72 °F    
Average Humidity 71    
Maximum Humidity 87    
Minimum Humidity 55    
Precipitation  
Precipitation 0.00 in 0.13 in 4.75 in (1982)
Month to date precipitation 1.63 1.97  
Year to date precipitation 22.98 17.99  
Sea Level Pressure  
Sea Level Pressure 30.26 in    
Wind  
Wind Speed 5 mph (West)    
Max Wind Speed 15 mph    
Max Gust Speed 31 mph    
Visibility 10 miles    
Events      
T = Trace of Precipitation, MM = Missing Value Source: NWS Daily Summary

Daily Weather History Graph

Daily Weather History Graph

Search for Another Location

Airport or City:

Trip Planner

Search our weather history database for the weather conditions in past years. The results will help you decide how hot, cold, wet, or windy it might be!

Date:

Astronomy

Jul. 17, 2013 Rise Set
Actual Time 6:21 AM EDT 9:15 PM EDT
Civil Twilight 5:47 AM EDT 9:48 PM EDT
Nautical Twilight 5:05 AM EDT 10:30 PM EDT
Astronomical Twilight 4:16 AM EDT 11:19 PM EDT
Moon 4:02 PM EDT (7/17) 1:29 AM EDT (7/17)
Length of Visible Light 16h 00m
Length of Day
14h 54m
Waxing Gibbous, 67% of the Moon is Illuminated
Jul 17
Waxing Gibbous
Jul 22
Full
Jul 29
Last Quarter
Aug 6
New
Aug 14
First Quarter

Hourly Weather History & Observations

Time (EDT) Temp. Heat Index Dew Point Humidity Pressure Visibility Wind Dir Wind Speed Gust Speed Precip Events Conditions
12:53 AM 78.1 °F - 72.0 °F 81% 30.28 in 9.0 mi WSW 3.5 mph - N/A   Clear
1:53 AM 77.0 °F - 72.0 °F 84% 30.28 in 9.0 mi Calm Calm - N/A   Clear
2:53 AM 77.0 °F - 71.1 °F 82% 30.28 in 10.0 mi SW 3.5 mph - N/A   Mostly Cloudy
3:53 AM 75.9 °F - 71.1 °F 85% 30.28 in 10.0 mi SW 4.6 mph - N/A   Clear
4:53 AM 75.0 °F - 70.0 °F 84% 30.28 in 10.0 mi Calm Calm - N/A   Clear
5:53 AM 73.9 °F - 70.0 °F 87% 30.29 in 10.0 mi SW 3.5 mph - N/A   Clear
6:53 AM 75.0 °F - 70.0 °F 84% 30.30 in 10.0 mi Calm Calm - N/A   Clear
7:53 AM 79.0 °F - 72.0 °F 79% 30.31 in 10.0 mi West 3.5 mph - N/A   Clear
8:53 AM 82.0 °F 86.7 °F 72.0 °F 71% 30.31 in 10.0 mi West 6.9 mph - N/A   Partly Cloudy
9:53 AM 84.9 °F 91.4 °F 73.0 °F 67% 30.31 in 10.0 mi West 6.9 mph - N/A   Partly Cloudy
10:53 AM 87.1 °F 95.4 °F 73.9 °F 65% 30.30 in 10.0 mi West 8.1 mph - N/A   Mostly Cloudy
11:53 AM 86.0 °F 93.0 °F 73.0 °F 65% 30.30 in 10.0 mi NW 9.2 mph - N/A   Scattered Clouds
12:53 PM 89.1 °F 98.0 °F 73.9 °F 61% 30.28 in 10.0 mi NW 6.9 mph - N/A   Scattered Clouds
1:53 PM 90.0 °F 99.0 °F 73.9 °F 59% 30.27 in 10.0 mi West 9.2 mph - N/A   Scattered Clouds
2:53 PM 90.0 °F 96.9 °F 72.0 °F 55% 30.25 in 10.0 mi West 10.4 mph - N/A   Scattered Clouds
3:53 PM 88.0 °F 94.7 °F 72.0 °F 59% 30.24 in 10.0 mi WNW 9.2 mph - N/A   Scattered Clouds
4:53 PM 91.0 °F 99.3 °F 73.0 °F 55% 30.23 in 10.0 mi West 8.1 mph - N/A   Clear
5:53 PM 90.0 °F 96.4 °F 71.1 °F 54% 30.21 in 10.0 mi West 6.9 mph - N/A   Clear
6:53 PM 89.1 °F 95.0 °F 71.1 °F 55% 30.20 in 10.0 mi WNW 8.1 mph - N/A   Clear
7:53 PM 87.1 °F 92.0 °F 70.0 °F 57% 30.19 in 10.0 mi WNW 5.8 mph - N/A   Clear
8:53 PM 84.0 °F 87.8 °F 69.1 °F 61% 30.19 in 10.0 mi West 3.5 mph - N/A   Clear
9:53 PM 81.0 °F 84.1 °F 69.1 °F 67% 30.19 in 10.0 mi Calm Calm - N/A   Clear
10:53 PM 78.1 °F - 70.0 °F 76% 30.20 in 10.0 mi South 3.5 mph - N/A   Clear
11:53 PM 79.0 °F - 71.1 °F 77% 30.20 in 10.0 mi South 3.5 mph - N/A   Clear